Starlink 32814

operational
NORAD ID: 62871 Int'l Des: 2025-022 Owner: SPXS Country: US Constellation: starlink
LEOCIRCULAR

Über Starlink 32814

Beschreibung wird geladen...

Live-Position

3D-Globus wird geladen...

Nächste Überflüge

Höhenverlauf

Altitude vs Time

uPlot chart will show altitude changes over time

Zweizeiliger Elementsatz

1 62871U 25022T 25352.14071024 .00012548 00000-0 43505-3 0 9991
2 62871 53.1573 148.4737 0001070 93.9866 266.1257 15.30201619 49418
Epoch: 18. Dez. 2025 • Age: 11 hours

Aktueller Status

Höhe 476.8 km
Geschwindigkeit 7.63 km/s
Subsatellitenpunkt -4.01°S, 159.01°W
Startdatum 2. Feb. 2025
Alter 0.8 years
Typ internet

Technische Details

Klassifizierung Payload
Masse 730.00 kg
Trockenmasse 700.00 kg
Gesamtmasse 730.00 kg
Länge 0.30 m
Durchmesser 4.10 m
Spannweite 29.00 m
Form Box + pan
Hersteller SPXS
Bus-Typ Starlink V2M
Phasenstatus In Orbit
Besitzer/Staat SPXS/US

Große Konstellationen

Loading constellations...